GW1135 Weather Reports


Display with metric or nautical units.
time (UTC)temp
F
wind
direction
speed
MPH
gust
MPH
rain 1hr
in
rain 24hr
in
rain mn
in
humidity
%
barometer
mb
20260509221543 59 215 3.0 6.0 0.00 0.36 0.34 82 1007.5
20260509220359 60 210 2.0 3.0 0.00 0.36 0.34 81 1007.6
20260509215234 61 223 2.0 5.0 0.00 0.36 0.34 80 1007.6
20260509213927 60 207 5.0 7.0 0.00 0.37 0.34 79 1007.8
20260509212742 61 217 3.0 5.0 0.00 0.37 0.34 80 1007.9
20260509211558 60 205 4.0 5.0 0.00 0.37 0.34 79 1007.7
20260509210415 59 229 6.0 8.0 0.00 0.37 0.34 81 1007.9
20260509205230 58 227 3.0 6.0 0.00 0.37 0.34 85 1007.9
20260509204014 58 227 5.0 8.0 0.00 0.37 0.34 85 1008.3
20260509202727 58 204 2.0 3.0 0.00 0.37 0.34 86 1008.3
20260509201543 57 224 4.0 6.0 0.00 0.37 0.34 88 1008.3
20260509200418 56 229 3.0 6.0 0.00 0.37 0.34 88 1008.4
20260509195216 56 240 4.0 6.0 0.00 0.37 0.34 89 1008.7
20260509193947 55 233 3.0 6.0 0.00 0.37 0.34 90 1008.9
20260509192742 55 232 3.0 8.0 0.01 0.37 0.34 92 1008.9
20260509191543 55 219 4.0 7.0 0.03 0.37 0.34 94 1009.1
20260509190359 55 255 2.0 3.0 0.05 0.37 0.34 95 1008.8
20260509185214 54 212 2.0 3.0 0.07 0.37 0.34 95 1008.8
20260509183927 54 223 2.0 5.0 0.09 0.37 0.34 95 1008.9
20260509182823 54 216 3.0 5.0 0.09 0.36 0.33 95 1008.9
20260509181557 53 207 4.0 6.0 0.08 0.34 0.31 95 1009.1
20260509180359 54 207 1.0 2.0 0.07 0.32 0.29 95 1009.1
20260509175215 53 198 3.0 3.0 0.06 0.30 0.27 95 1009.0
20260509173926 53 229 2.0 3.0 0.05 0.28 0.25 95 1009.1
20260509172744 53 214 3.0 5.0 0.05 0.27 0.24 94 1009.2
20260509171559 53 222 4.0 7.0 0.07 0.26 0.23 94 1009.2
20260509170414 53 220 2.0 3.0 0.08 0.26 0.22 94 1009.2
20260509165147 53 212 4.0 7.0 0.09 0.25 0.21 94 1009.2
20260509164003 53 232 3.0 5.0 0.09 0.25 0.20 94 1009.2
20260509162818 53 203 3.0 5.0 0.09 0.24 0.19 94 1009.3
20260509161615 54 154 1.0 3.0 0.07 0.21 0.16 94 1009.4
20260509160327 53 213 2.0 3.0 0.06 0.19 0.14 93 1009.4
20260509155142 53 218 2.0 3.0 0.04 0.17 0.12 93 1009.4
20260509154020 53 225 4.0 6.0 0.04 0.16 0.11 92 1009.4
20260509152815 53 209 1.0 1.0 0.03 0.15 0.10 92 1009.6
20260509151614 53 210 2.0 3.0 0.03 0.14 0.09 91 1009.7
20260509150327 52 217 2.0 3.0 0.03 0.13 0.08 91 1009.9
20260509145143 52 206 1.0 2.0 0.03 0.13 0.08 92 1009.8
20260509143958 52 204 2.0 3.0 0.03 0.12 0.07 93 1009.7
20260509142816 52 140 1.0 2.0 0.03 0.12 0.07 93 1009.6
20260509141527 52 195 1.0 1.0 0.03 0.11 0.06 94 1009.8
20260509140342 51 204 0.0 1.0 0.02 0.10 0.05 94 1009.9
20260509135200 51 185 0.0 1.0 0.02 0.10 0.05 95 1009.9
20260509134015 51 152 1.0 1.0 0.01 0.09 0.04 95 1010.0
20260509132726 51 0.0 0.0 0.01 0.09 0.04 95 1009.9
20260509131544 51 0.0 0.0 0.00 0.08 0.03 96 1010.0
20260509130359 51 0.0 0.0 0.01 0.08 0.03 96 1010.0
20260509125214 50 0.0 0.0 0.01 0.08 0.03 96 1010.3
20260509123928 51 0.0 0.0 0.02 0.08 0.03 96 1010.2
20260509122803 50 0.0 0.0 0.02 0.08 0.03 96 1010.0
20260509121559 50 0.0 0.0 0.02 0.08 0.03 97 1010.0
20260509120436 50 0.0 0.0 0.01 0.07 0.02 97 1010.0
20260509115127 50 0.0 0.0 0.01 0.07 0.02 97 1009.8
20260509113943 50 0.0 0.0 0.00 0.06 0.01 97 1009.9
20260509112820 50 0.0 0.0 0.00 0.06 0.01 97 1009.8
20260509111615 50 229 1.0 1.0 0.00 0.06 0.01 97 1010.1
20260509110327 50 242 0.0 1.0 0.00 0.06 0.01 97 1009.8
20260509105143 49 120 0.0 1.0 0.00 0.06 0.01 97 1009.8
20260509103958 49 228 0.0 1.0 0.00 0.06 0.01 97 1009.7
20260509102900 49 0.0 0.0 0.00 0.06 0.01 97 1009.8
20260509101559 49 0.0 0.0 0.00 0.06 0.01 96 1009.9
20260509100434 49 0.0 0.0 0.00 0.06 0.01 96 1009.7
20260509095216 49 182 0.0 1.0 0.00 0.06 0.01 96 1009.7
20260509093947 50 0.0 0.0 0.00 0.06 0.01 96 1009.9
20260509092742 49 0.0 0.0 0.00 0.06 0.01 96 1010.1
20260509091600 49 0.0 0.0 0.00 0.06 0.01 96 1010.2
20260509090415 50 0.0 0.0 0.00 0.06 0.01 96 1010.3
20260509085127 49 0.0 0.0 0.00 0.06 0.01 96 1010.2
20260509083944 49 0.0 0.0 0.00 0.06 0.01 96 1010.1
20260509082759 49 0.0 0.0 0.00 0.06 0.01 96 1010.1
20260509081615 49 0.0 0.0 0.01 0.06 0.01 96 1010.2
20260509080415 50 172 0.0 1.0 0.01 0.06 0.01 96 1010.1
20260509075208 50 183 0.0 1.0 0.01 0.06 0.01 96 1010.3
20260509073927 50 83 1.0 3.0 0.01 0.06 0.01 96 1010.4
20260509072744 50 52 0.0 1.0 0.01 0.06 0.01 96 1010.6
20260509071620 50 70 1.0 2.0 0.00 0.05 0.00 96 1010.6
20260509070435 50 0.0 0.0 0.00 0.05 0.00 95 1010.7
20260509065210 50 262 1.0 1.0 0.00 0.05 0.00 95 1011.0
20260509063943 50 83 1.0 1.0 0.00 0.05 0.00 95 1010.6
20260509062800 50 0.0 0.0 0.00 0.05 0.00 95 1011.0
20260509061559 50 117 1.0 1.0 0.00 0.05 0.00 95 1011.2
20260509060414 50 0.0 0.0 0.00 0.05 0.00 95 1011.3
20260509055200 50 0.0 0.0 0.00 0.05 0.00 95 1011.5
20260509053959 50 0.0 0.0 0.00 0.05 0.00 95 1011.6
20260509052816 50 0.0 0.0 0.00 0.05 0.00 94 1011.6
20260509051615 50 0.0 0.0 0.00 0.05 0.00 94 1011.7
20260509050328 51 0.0 0.0 0.00 0.05 0.00 94 1011.9
20260509045144 51 0.0 0.0 0.00 0.05 0.00 94 1011.8
20260509043945 50 211 1.0 2.0 0.00 0.05 0.00 94 1011.8
20260509042800 50 0.0 0.0 0.00 0.05 0.00 93 1011.1
20260509041615 51 171 0.0 1.0 0.00 0.05 0.00 93 1010.9
20260509040415 51 300 0.0 1.0 0.00 0.05 0.00 93 1011.3
20260509035129 51 0.0 0.0 0.00 0.06 0.05 92 1011.2
20260509033944 51 0.0 0.0 0.00 0.06 0.05 92 1011.3
20260509032759 51 0.0 0.0 0.00 0.06 0.05 92 1011.4
20260509031616 51 0.0 0.0 0.01 0.06 0.05 91 1011.5
20260509030329 51 237 1.0 1.0 0.01 0.06 0.05 92 1011.6
20260509025144 51 203 0.0 1.0 0.01 0.06 0.05 92 1011.6
20260509023959 52 0.0 0.0 0.01 0.06 0.05 92 1011.6
20260509022816 52 0.0 0.0 0.01 0.06 0.05 91 1011.6
20260509021529 51 0.0 0.0 0.00 0.05 0.04 91 1011.9
20260509020349 51 0.0 0.0 0.00 0.05 0.04 90 1011.7
20260509015134 52 0.0 0.0 0.00 0.05 0.04 89 1011.3
20260509013943 52 0.0 0.0 0.00 0.05 0.04 88 1011.2
20260509012800 53 0.0 0.0 0.00 0.05 0.04 86 1011.2
20260509011616 52 0.0 0.0 0.00 0.05 0.04 88 1011.0
20260509010349 52 0.0 0.0 0.00 0.05 0.04 87 1011.0
20260509005144 52 0.0 0.0 0.00 0.05 0.04 87 1010.8
20260509003959 53 0.0 0.0 0.00 0.05 0.04 87 1010.9
20260509002816 53 154 1.0 2.0 0.00 0.05 0.04 86 1010.9
20260509001615 53 0.0 0.0 0.00 0.05 0.04 85 1010.8
20260509000410 53 175 1.0 2.0 0.00 0.05 0.04 85 1010.7
20260508235144 54 164 1.0 2.0 0.00 0.05 0.04 86 1010.7
20260508234001 55 0.0 0.0 0.00 0.05 0.04 84 1010.4
20260508232800 54 0.0 0.0 0.01 0.05 0.04 83 1010.1
20260508231615 55 0.0 0.0 0.01 0.05 0.04 83 1010.2
20260508230350 54 195 0.0 1.0 0.01 0.05 0.04 83 1010.4
20260508225143 54 0.0 0.0 0.01 0.05 0.04 82 1010.6
20260508224001 54 208 0.0 1.0 0.02 0.05 0.04 81 1010.5
20260508222816 54 230 1.0 1.0 0.01 0.04 0.03 80 1010.6